This demonstration page uses our WeatherBlox Daily Observations layout. Learn more.

Left ArrowRight Arrow

34.74481, -87.66753

Hourly Observations for May 18, 2017

Temp ( °F °C ) Dew Point ( °F °C ) Humidity (%) Winds ( mph kmh ) Pressure ( in mb ) Visibility ( mi km ) Precip ( " mm )
12:53 am 00:53 Clear 76 24.4 66 18.9 72 72 S 9 15 29.96 1015 10 16 0.00 0.00
1:53 am 01:53 Mostly Cloudy 75 23.9 66 18.9 74 74 S 6 9 29.96 1015 10 16 0.00 0.00
2:53 am 02:53 Clear 72 22.2 66 18.9 82 82 SSE 7 11 29.96 1015 10 16 0.00 0.00
3:53 am 03:53 Clear 71 21.7 66 18.9 84 84 SSE 5 7 29.98 1015 10 16 0.00 0.00
4:53 am 04:53 Clear 70 21.1 66 18.9 87 87 SSE 5 7 29.99 1016 10 16 0.00 0.00
5:53 am 05:53 Sunny 71 21.7 67 19.4 87 87 S 6 9 30.00 1016 10 16 0.00 0.00
6:53 am 06:53 Partly Cloudy 73 22.8 69 20.6 87 87 SW 5 7 30.03 1017 10 16 0.00 0.00
7:53 am 07:53 Partly Cloudy 77 25 69 20.6 77 77 S 7 11 30.05 1018 10 16 0.00 0.00
8:40 am 08:40 Mostly Cloudy 79 26.1 68 20 69 69 SSW 9 15 30.03 1017 10 16 0.00 0.00
8:51 am 08:51 Mostly Cloudy 81 27 68 20 66 66 SSW 9 15 30.06 1018 10 16 0.00 0.00
8:53 am 08:53 Mostly Cloudy 80 26.7 68 20 67 67 S 10 17 30.05 1018 10 16 0.00 0.00
9:10 am 09:10 Mostly Cloudy 80 26.7 67 19.4 64 64 S 12 19 30.03 1017 10 16 0.00 0.00
9:53 am 09:53 Mostly Cloudy 81 27.2 66 18.9 61 61 SW 9 15 30.05 1018 10 16 0.00 0.00
10:53 am 10:53 Partly Cloudy 83 28.3 67 19.4 59 59 VRB 3 6 30.03 1017 10 16 0.00 0.00
11:53 am 11:53 Cloudy with Light Rain 73 22.8 68 20 84 84 SSW 14 22 30.05 1018 4 6 0.09 2.29
12:02 pm 12:02 Cloudy with Nearby Thunderstorms 74 23.3 68 20 82 82 SW 7 11 30.03 1017 5 8 0.02 0.51
12:24 pm 12:24 Mostly Cloudy with Thunderstorms 77 25 69 20.6 77 77 S 9 15 30.03 1017 10 16 0.02 0.51
12:42 pm 12:42 Mostly Cloudy with Nearby Thunderstorms 77 25 69 20.6 77 77 S 7 11 30.03 1017 10 16 0.02 0.51
12:53 pm 12:53 Mostly Cloudy 77 25 70 21.1 79 79 S 6 9 30.03 1017 10 16 0.02 0.51
1:53 pm 13:53 Partly Cloudy 79 26.1 69 20.6 72 72 S 9 15 30.01 1016 10 16 0.00 0.00
2:53 pm 14:53 Partly Cloudy 80 26.7 69 20.6 69 69 S 6 9 30.01 1016 10 16 0.00 0.00
3:53 pm 15:53 Partly Cloudy 81 27.2 69 20.6 67 67 SSW 10 17 29.99 1016 10 16 0.00 0.00
4:53 pm 16:53 Partly Cloudy 82 27.8 70 21.1 67 67 S 12 19 29.98 1015 10 16 0.00 0.00
5:53 pm 17:53 Partly Cloudy 80 26.7 69 20.6 69 69 SSE 10 17 29.98 1015 10 16 0.00 0.00
6:53 pm 18:53 Partly Cloudy 78 25.6 70 21.1 76 76 SSE 5 7 29.98 1015 10 16 0.00 0.00
7:53 pm 19:53 Mostly Clear 76 24.4 70 21.1 82 82 SSE 5 7 29.97 1015 10 16 0.00 0.00
8:53 pm 20:53 Clear 73 22.8 69 20.6 87 87 ESE 3 6 29.96 1014 10 16 0.00 0.00
9:53 pm 21:53 Clear 72 22.2 69 20.6 91 91 ESE 6 9 29.98 1015 10 16 0.00 0.00
10:53 pm 22:53 Clear 72 22.2 69 20.6 91 91 ESE 5 7 29.99 1016 10 16 0.00 0.00
11:53 pm 23:53 Clear 71 21.7 68 20 90 90 SE 5 7 29.98 1015 10 16 0.00 0.00

Powered by AerisWeather